Weather History for Pinedale, WY

Change the Weather History Date:

Sunday, March 24, 2013

  Actual Average (KBPI) Record (KBPI)
Temperature  
Mean Temperature 14 °F 31 °F  
Max Temperature 26 °F 45 °F 63 °F (2012)
Min Temperature 1 °F 17 °F -3 °F (2013)
Degree Days  
Heating Degree Days 52 34  
Month to date heating degree days 941  
Since 1 July heating degree days 8464  
Cooling Degree Days 0 0  
Month to date cooling degree days 0  
Year to date cooling degree days 0  
Moisture  
Dew Point -1 °F    
Average Humidity 54    
Maximum Humidity 79    
Minimum Humidity 26    
Precipitation  
Precipitation 0.00 in 0.02 in 0.15 in (2005)
Month to date precipitation 0.31  
Year to date precipitation 0.97  
Sea Level Pressure  
Sea Level Pressure 30.07 in    
Wind  
Wind Speed 9 mph (WNW)    
Max Wind Speed 23 mph    
Max Gust Speed 32 mph    
Visibility 10 miles    
Events      
T = Trace of Precipitation, MM = Missing Value Source: NWS Daily Summary

Daily Weather History Graph

Daily Weather History Graph

Search for Another Location

Airport:

Trip Planner

Search our weather history database for the weather conditions in past years. The results will help you decide how hot, cold, wet, or windy it might be!

Date:

Astronomy

Mar. 24, 2013 Rise Set
Actual Time 7:14 AM MDT 7:36 PM MDT
Civil Twilight 6:46 AM MDT 8:04 PM MDT
Nautical Twilight 6:13 AM MDT 8:38 PM MDT
Astronomical Twilight 5:39 AM MDT 9:12 PM MDT
Moon 5:05 PM MDT (3/24) 5:30 AM MDT (3/24)
Length of Visible Light 13h 18m
Length of Day
12h 21m
Waxing Gibbous, 92% of the Moon is Illuminated
Mar 24
Waxing Gibbous
Mar 27
Full
Apr 2
Last Quarter
Apr 10
New
Apr 18
First Quarter

Hourly Weather History & Observations

Time (MDT) Temp. Windchill Dew Point Humidity Pressure Visibility Wind Dir Wind Speed Gust Speed Precip Events Conditions
12:15 AM 6.8 °F -2.0 °F 1.4 °F 79% 30.07 in 10.0 mi West 4.6 mph - N/A   Clear
12:35 AM 6.8 °F - 1.4 °F 79% 30.07 in 10.0 mi Calm Calm - N/A   Clear
12:55 AM 6.8 °F - -0.4 °F 72% 30.07 in 10.0 mi Calm Calm - N/A   Scattered Clouds
1:35 AM 3.2 °F -4.2 °F -2.2 °F 78% 30.07 in 10.0 mi NW 3.5 mph - N/A   Scattered Clouds
1:55 AM 5.0 °F -5.6 °F -2.2 °F 72% 30.07 in 10.0 mi WNW 5.8 mph - N/A   Clear
2:15 AM 3.2 °F -9.1 °F -4.0 °F 72% 30.06 in 10.0 mi NW 6.9 mph - N/A   Scattered Clouds
2:35 AM 3.2 °F -4.2 °F -4.0 °F 72% 30.07 in 10.0 mi NW 3.5 mph - N/A   Mostly Cloudy
2:55 AM 3.2 °F -7.8 °F -4.0 °F 72% 30.06 in 10.0 mi NW 5.8 mph - N/A   Mostly Cloudy
3:15 AM 3.2 °F -10.3 °F -4.0 °F 72% 30.05 in 10.0 mi NW 8.1 mph - N/A   Mostly Cloudy
3:35 AM 3.2 °F -10.3 °F -4.0 °F 72% 30.05 in 10.0 mi NW 8.1 mph - N/A   Overcast
3:55 AM 3.2 °F -11.3 °F -4.0 °F 72% 30.05 in 10.0 mi NW 9.2 mph - N/A   Overcast
4:15 AM 3.2 °F -9.1 °F -4.0 °F 72% 30.05 in 10.0 mi NW 6.9 mph - N/A   Overcast
4:35 AM 3.2 °F -9.1 °F -4.0 °F 72% 30.05 in 10.0 mi NW 6.9 mph - N/A   Overcast
4:55 AM 3.2 °F -10.3 °F -4.0 °F 72% 30.05 in 10.0 mi NNW 8.1 mph - N/A   Overcast
5:15 AM 3.2 °F -10.3 °F -4.0 °F 72% 30.05 in 10.0 mi WNW 8.1 mph - N/A   Overcast
5:35 AM 3.2 °F -4.2 °F -4.0 °F 72% 30.05 in 10.0 mi NNW 3.5 mph - N/A   Overcast
5:55 AM 3.2 °F -10.3 °F -5.8 °F 66% 30.05 in 10.0 mi WNW 8.1 mph - N/A   Overcast
6:15 AM 1.4 °F -11.3 °F -5.8 °F 72% 30.06 in 10.0 mi WNW 6.9 mph - N/A   Overcast
6:35 AM 1.4 °F -11.3 °F -5.8 °F 72% 30.06 in 10.0 mi WNW 6.9 mph - N/A   Overcast
6:55 AM 1.4 °F -8.3 °F -5.8 °F 72% 30.06 in 10.0 mi NW 4.6 mph - N/A   Overcast
7:15 AM 1.4 °F -12.5 °F -5.8 °F 72% 30.06 in 10.0 mi NW 8.1 mph - N/A   Overcast
7:35 AM 1.4 °F -11.3 °F -5.8 °F 72% 30.06 in 10.0 mi NW 6.9 mph - N/A   Mostly Cloudy
7:55 AM 3.2 °F -11.3 °F -4.0 °F 72% 30.07 in 10.0 mi NW 9.2 mph - N/A   Scattered Clouds
8:15 AM 5.0 °F -9.1 °F -4.0 °F 66% 30.07 in 10.0 mi NW 9.2 mph - N/A   Clear
8:35 AM 6.8 °F -5.9 °F -2.2 °F 67% 30.07 in 10.0 mi WNW 8.1 mph - N/A   Clear
8:55 AM 8.6 °F -2.6 °F -0.4 °F 67% 30.06 in 10.0 mi NW 6.9 mph - N/A   Clear
9:15 AM 12.2 °F -1.0 °F -0.4 °F 57% 30.06 in 10.0 mi WNW 10.4 mph - N/A   Clear
9:35 AM 14.0 °F 2.0 °F -0.4 °F 53% 30.06 in 10.0 mi NW 9.2 mph - N/A   Clear
9:55 AM 17.6 °F 4.3 °F 3.2 °F 53% 30.06 in 10.0 mi NW 12.7 mph - N/A   Clear
10:15 AM 19.4 °F 5.5 °F 1.4 °F 46% 30.06 in 10.0 mi NW 15.0 mph 21.9 mph N/A   Clear
10:35 AM 19.4 °F 2.8 °F -0.4 °F 42% 30.06 in 10.0 mi WNW 21.9 mph 25.3 mph N/A   Clear
10:55 AM 19.4 °F 4.1 °F -0.4 °F 42% 30.07 in 10.0 mi NW 18.4 mph 26.5 mph N/A   Clear
11:15 AM 19.4 °F 5.0 °F -2.2 °F 39% 30.07 in 10.0 mi NW 16.1 mph 25.3 mph N/A   Clear
11:35 AM 21.2 °F 6.8 °F -0.4 °F 39% 30.07 in 10.0 mi WNW 17.3 mph 26.5 mph N/A   Clear
11:55 AM 21.2 °F 6.4 °F -0.4 °F 39% 30.07 in 10.0 mi WNW 18.4 mph 26.5 mph N/A   Clear
12:15 PM 21.2 °F 6.0 °F -2.2 °F 36% 30.07 in 10.0 mi WNW 19.6 mph 28.8 mph N/A   Clear
12:35 PM 21.2 °F 4.9 °F -0.4 °F 39% 30.07 in 10.0 mi NW 23.0 mph 28.8 mph N/A   Clear
12:55 PM 23.0 °F 10.1 °F -0.4 °F 36% 30.07 in 10.0 mi WNW 15.0 mph 24.2 mph N/A   Clear
1:15 PM 23.0 °F 10.6 °F -0.4 °F 36% 30.07 in 10.0 mi West 13.8 mph 23.0 mph N/A   Clear
1:35 PM 23.0 °F 10.1 °F -0.4 °F 36% 30.06 in 10.0 mi WNW 15.0 mph 24.2 mph N/A   Clear
1:55 PM 23.0 °F 9.6 °F -0.4 °F 36% 30.06 in 10.0 mi WNW 16.1 mph 24.2 mph N/A   Clear
2:15 PM 23.0 °F 10.1 °F -0.4 °F 36% 30.06 in 10.0 mi West 15.0 mph 25.3 mph N/A   Clear
2:35 PM 23.0 °F 10.6 °F -0.4 °F 36% 30.05 in 10.0 mi West 13.8 mph 24.2 mph N/A   Clear
2:55 PM 24.8 °F 10.7 °F -2.2 °F 31% 30.06 in 10.0 mi WNW 19.6 mph 26.5 mph N/A   Clear
3:15 PM 24.8 °F 10.7 °F -0.4 °F 34% 30.05 in 10.0 mi West 19.6 mph 32.2 mph N/A   Clear
3:35 PM 26.6 °F 13.8 °F -2.2 °F 29% 30.05 in 10.0 mi NW 17.3 mph 26.5 mph N/A   Clear
3:55 PM 24.8 °F 11.1 °F -0.4 °F 34% 30.05 in 10.0 mi WNW 18.4 mph 27.6 mph N/A   Clear
4:15 PM 26.6 °F 15.2 °F -4.0 °F 26% 30.05 in 10.0 mi West 13.8 mph 21.9 mph N/A   Clear
4:35 PM 24.8 °F 12.4 °F -2.2 °F 31% 30.05 in 10.0 mi WNW 15.0 mph 23.0 mph N/A   Clear
4:55 PM 26.6 °F 14.3 °F -2.2 °F 29% 30.05 in 10.0 mi WNW 16.1 mph 23.0 mph N/A   Clear
5:15 PM 26.6 °F 13.4 °F -2.2 °F 29% 30.05 in 10.0 mi West 18.4 mph 24.2 mph N/A   Clear
5:35 PM 26.6 °F 13.4 °F -2.2 °F 29% 30.05 in 10.0 mi WNW 18.4 mph 23.0 mph N/A   Clear
5:55 PM 24.8 °F 10.0 °F -4.0 °F 28% 30.06 in 10.0 mi West 21.9 mph 27.6 mph N/A   Clear
6:15 PM 24.8 °F 11.5 °F -2.2 °F 31% 30.06 in 10.0 mi WNW 17.3 mph 24.2 mph N/A   Clear
6:35 PM 23.0 °F 8.7 °F -4.0 °F 31% 30.06 in 10.0 mi West 18.4 mph 23.0 mph N/A   Clear
6:55 PM 23.0 °F 8.7 °F -2.2 °F 33% 30.06 in 10.0 mi WNW 18.4 mph 24.2 mph N/A   Clear
7:15 PM 23.0 °F 10.6 °F -2.2 °F 33% 30.07 in 10.0 mi WNW 13.8 mph 18.4 mph N/A   Clear
7:55 PM 19.4 °F 7.9 °F -0.4 °F 42% 30.07 in 10.0 mi WNW 10.4 mph - N/A   Clear
8:15 PM 19.4 °F 7.9 °F 1.4 °F 46% 30.08 in 10.0 mi WNW 10.4 mph - N/A   Clear
8:35 PM 17.6 °F 5.0 °F 1.4 °F 49% 30.08 in 10.0 mi WNW 11.5 mph - N/A   Clear
8:55 PM 15.8 °F 6.1 °F 3.2 °F 58% 30.09 in 10.0 mi WNW 6.9 mph - N/A   Clear
9:15 PM 17.6 °F 4.3 °F 1.4 °F 49% 30.09 in 10.0 mi WNW 12.7 mph - N/A   Clear
9:35 PM 15.8 °F 5.1 °F 3.2 °F 58% 30.10 in 10.0 mi WNW 8.1 mph - N/A   Clear
9:55 PM 14.0 °F 1.2 °F 3.2 °F 62% 30.11 in 10.0 mi WNW 10.4 mph - N/A   Clear
10:15 PM 14.0 °F 2.0 °F 3.2 °F 62% 30.11 in 10.0 mi NW 9.2 mph - N/A   Clear
10:35 PM 14.0 °F 2.9 °F 3.2 °F 62% 30.11 in 10.0 mi WNW 8.1 mph - N/A   Clear
10:55 PM 12.2 °F -1.0 °F 1.4 °F 62% 30.11 in 10.0 mi WNW 10.4 mph - N/A   Clear
11:15 PM 10.4 °F -1.5 °F 3.2 °F 73% 30.11 in 10.0 mi NNW 8.1 mph - N/A   Clear
11:35 PM 10.4 °F 0.8 °F 3.2 °F 73% 30.11 in 10.0 mi WNW 5.8 mph - N/A   Clear
11:55 PM 10.4 °F 0.8 °F 3.2 °F 73% 30.11 in 10.0 mi West 5.8 mph - N/A   Clear